"Pseudo-MPEC" for scax010

Created 2023 Apr 2 19:22:10 UT using Find_Orb

Click here for an explanation of pseudo-MPECs

 
 Astrometry: 
     scax010* C2023 02 23DNkI`02]Qiu,8!0AstrometryJJx$Qx9fredacted;@Orclick=xL92
     scax010  C2023 02 23p[L;^f1nherexnFAjRZE^InaMF_Af%p8Bn.$uI;Z1n)15M=Ir3.AL92
     scax010  C2023 02 23(oH(.Cng:,for/bng7=*explanationSQoG46;w`g0H.8q1@%ThFL92

Station data:
(L92) San Costantino  (N38.705391 E16.002110)  Italy.  Observer T. Scarmato.
   0.25-m Newtonian reflector + CCD.

Orbital elements:  scax010
   Perihelion 2023 Jan 2.93878 +/- 44.6 TT = 22:31:50 (JD 2459947.43878)
Epoch 2023 Feb 24.0 TT = JDT 2459999.5   Earth MOID: 0.2424   Ma: 0.0529
M  14.76255809 +/- 20               (J2000 ecliptic)             AutoNEOCP
n   0.28356149 +/- 0.228            Peri.  333.07762 +/- 70
a   2.29458706 +/- 1.23             Node   136.31792 +/- 46
e   0.4667554 +/- 0.204             Incl.    3.96031 +/- 1.7
P   3.48                   H 20.07  G  0.15   U 11.8  SR
q 1.22357612 +/- 0.312    Q 3.36559800 +/- 3.96
From 3 observations 2023 Feb. 23 (22.5 min); mean residual 1".12
Residuals in arcseconds: 
230223 L92  .91-  .51-    230223 L92  1.9+  1.1+    230223 L92  1.0-  .61-    

Ephemerides (geocentric):
Date (UTC) HH   RA             Dec           delta  r     elong  mag " sig PA
---- --------  ------------   ------------  ------ ------ -----  --- --------
2023 04 02 19  10 24 33.278   +16 45 38.63  .62326 1.5252 138.9 21.2  59d   7
2023 04 02 20  10 24 35.741   +16 45 24.41  .62365 1.5255 138.9 21.2  59d   7
2023 04 02 21  10 24 38.205   +16 45 10.17  .62405 1.5257 138.8 21.2  59d   7
2023 04 02 22  10 24 40.671   +16 44 55.91  .62445 1.5259 138.8 21.2  59d   7
2023 04 02 23  10 24 43.139   +16 44 41.63  .62485 1.5262 138.8 21.2  59d   7
2023 04 03 00  10 24 45.608   +16 44 27.32  .62525 1.5264 138.8 21.2  59d   7
2023 04 03 01  10 24 48.079   +16 44 12.99  .62565 1.5266 138.7 21.2  59d   7
2023 04 03 02  10 24 50.552   +16 43 58.64  .62606 1.5269 138.7 21.2  59d   7
2023 04 03 03  10 24 53.026   +16 43 44.27  .62646 1.5271 138.7 21.2  59d   7
2023 04 03 04  10 24 55.502   +16 43 29.87  .62686 1.5273 138.6 21.2  59d   7
2023 04 03 05  10 24 57.979   +16 43 15.46  .62726 1.5276 138.6 21.2  59d   7
2023 04 03 06  10 25 00.458   +16 43 01.02  .62766 1.5278 138.6 21.2  59d   7
2023 04 03 07  10 25 02.939   +16 42 46.56  .62806 1.5280 138.5 21.2  59d   7
2023 04 03 08  10 25 05.421   +16 42 32.07  .62846 1.5283 138.5 21.2  59d   7
2023 04 03 09  10 25 07.905   +16 42 17.57  .62886 1.5285 138.5 21.2  59d   7
2023 04 03 10  10 25 10.391   +16 42 03.04  .62927 1.5287 138.5 21.2  59d   7
2023 04 03 11  10 25 12.878   +16 41 48.50  .62967 1.5290 138.4 21.2  59d   7
2023 04 03 12  10 25 15.367   +16 41 33.93  .63007 1.5292 138.4 21.2  59d   7
2023 04 03 13  10 25 17.857   +16 41 19.33  .63047 1.5294 138.4 21.2  59d   7
2023 04 03 14  10 25 20.350   +16 41 04.72  .63088 1.5296 138.3 21.2  59d   7
2023 04 03 15  10 25 22.843   +16 40 50.09  .63128 1.5299 138.3 21.2  59d   7
2023 04 03 16  10 25 25.339   +16 40 35.43  .63168 1.5301 138.3 21.2  59d   7
2023 04 03 17  10 25 27.835   +16 40 20.75  .63209 1.5303 138.3 21.2  59d   7
2023 04 03 18  10 25 30.334   +16 40 06.05  .63249 1.5306 138.2 21.2  59d   7
2023 04 03 19  10 25 32.834   +16 39 51.33  .63290 1.5308 138.2 21.2  59d   7
2023 04 03 20  10 25 35.336   +16 39 36.58  .63330 1.5310 138.2 21.2  59d   7
2023 04 03 21  10 25 37.839   +16 39 21.82  .63371 1.5313 138.1 21.2  59d   7
2023 04 03 22  10 25 40.344   +16 39 07.03  .63411 1.5315 138.1 21.2  59d   7
2023 04 03 23  10 25 42.851   +16 38 52.22  .63451 1.5317 138.1 21.2  59d   7
2023 04 04 00  10 25 45.359   +16 38 37.40  .63492 1.5320 138.0 21.2  59d   7
2023 04 04 01  10 25 47.869   +16 38 22.54  .63533 1.5322 138.0 21.2  59d   7
2023 04 04 02  10 25 50.380   +16 38 07.67  .63573 1.5324 138.0 21.2  59d   7
2023 04 04 03  10 25 52.893   +16 37 52.78  .63614 1.5327 138.0 21.2  59d   7
2023 04 04 04  10 25 55.407   +16 37 37.86  .63654 1.5329 137.9 21.2  59d   7
2023 04 04 05  10 25 57.923   +16 37 22.93  .63695 1.5331 137.9 21.2  59d   7
2023 04 04 06  10 26 00.441   +16 37 07.97  .63735 1.5334 137.9 21.3  59d   7
2023 04 04 07  10 26 02.960   +16 36 52.99  .63776 1.5336 137.8 21.3  59d   7
2023 04 04 08  10 26 05.481   +16 36 37.99  .63817 1.5338 137.8 21.3  59d   7
2023 04 04 09  10 26 08.004   +16 36 22.97  .63858 1.5341 137.8 21.3  59d   7
2023 04 04 10  10 26 10.528   +16 36 07.93  .63898 1.5343 137.7 21.3  59d   7
2023 04 04 11  10 26 13.053   +16 35 52.86  .63939 1.5345 137.7 21.3  59d   7
2023 04 04 12  10 26 15.581   +16 35 37.78  .63980 1.5348 137.7 21.3  59d   7
2023 04 04 13  10 26 18.109   +16 35 22.67  .64020 1.5350 137.7 21.3  59d   7
2023 04 04 14  10 26 20.640   +16 35 07.55  .64061 1.5352 137.6 21.3  59d   7
2023 04 04 15  10 26 23.172   +16 34 52.40  .64102 1.5355 137.6 21.3  59d   7
2023 04 04 16  10 26 25.705   +16 34 37.23  .64143 1.5357 137.6 21.3  59d   7
2023 04 04 17  10 26 28.240   +16 34 22.04  .64184 1.5359 137.5 21.3  59d   7
2023 04 04 18  10 26 30.777   +16 34 06.83  .64225 1.5362 137.5 21.3  59d   7